PulseSat

PulseSat

MOLNIYA 1-63

Last updated on Feb. 17, 2019, 3:06 a.m. UTC

1 15429U 84124A   19047.53965796  .00001348  00000-0  00000+0 0  9996
2 15429  63.9124 284.7697 6787194 269.7227 180.1420  2.00636588250391
UTC
Height (km)
Latitude
Longitude
Inclination
Orbital Period

Next 30 passes for location: Hong Kong

Rise time Rise Azimuth (degrees) Set time Set Azimuth (degrees) Duration Max altitude (degrees)

No matching passes for this satellites

PulseSat

PulseSat is the new satellites software and hardware trackering solution by Pulsely.
Satellite Two Line Element Set source: US Air Force Space Command

Download PulseSat for iOS
© 2017 Pulsely Limited